Regional Weather Roundup
Issued by NWS

Home | Current Version | Previous Version | Graphics & Text | Print | Product List | Glossary On
Versions: 1 2 3 4 5 6 7 8 9 10 11 12 13 14 15 16 17 18 19 20 21 22 23 24 25 26 27 28 29 30 31 32 33 34 35 36 37 38 39 40 41 42 43 44 45 46 47 48 49 50
000
ASUS43 KIND 220059
RWRIN

WEATHER ROUNDUP FOR INDIANA
NATIONAL WEATHER SERVICE INDIANAPOLIS IN
800 PM EST SAT JAN 21 2017

NOTE: "FAIR" INDICATES FEW OR NO CLOUDS BELOW 12,000 FEET WITH NO
SIGNIFICANT WEATHER AND/OR OBSTRUCTIONS TO VISIBILITY.

* - STATION DOES NOT REPORT WEATHER SUCH AS PRECIPITATION OR FOG.

+ - STATION NOT QUALITY CONTROLLED BY THE NATIONAL WEATHER SERVICE.
    USE DATA WITH CAUTION...ESPECIALLY DEWPOINT AND RELATIVE
    HUMIDITY OBSERVATIONS.

INZ001>003-010>013-019-020-220200-
NORTHWEST INDIANA

CITY           SKY/WX    TMP DP  RH WIND       PRES   REMARKS
GARY /AIRPORT/ PTCLDY    46  43  87 W3        29.56R
MICHIGAN CITY+ PTCLDY    50  50 100 CALM      29.57R
MONTICELLO +   CLEAR     55  48  76 S5        29.56R
RENSSELAER +   CLEAR     52  50  93 SW5       29.57R

$$

LMZ046-743>745-220200-
SOUTHERN LAKE MICHIGAN

STATION/POSITION TIME  TEMP    WIND        PRES    WAVE
                       AIR SEA DIR/SP/G            HT
                 (UTC) (F)     (DEG/KT/KT) (MB)    (FT)
MICHIGAN CITY    0030   55     200/  4/  4   N/A

$$

INZ004-005-014>016-021>024-220200-
NORTH CENTRAL INDIANA

CITY           SKY/WX    TMP DP  RH WIND       PRES   REMARKS
GOSHEN         CLEAR     48  44  86 CALM      29.57R FOG
SOUTH BEND     CLEAR     47  46  97 CALM      29.57R

$$

INZ006>009-017-018-025>027-220200-
NORTHEAST INDIANA

CITY           SKY/WX    TMP DP  RH WIND       PRES   REMARKS
ANGOLA *+      CLEAR     52  41  66 SE3       29.57R
FORT WAYNE     CLEAR     52  48  86 S10       29.59R
KENDALLVILLE + CLEAR     52  50  93 S5        29.58R

$$

INZ028-029-035-036-043>045-051>053-220200-
WEST CENTRAL INDIANA

CITY           SKY/WX    TMP DP  RH WIND       PRES   REMARKS
CRAWFORDSVL +  CLOUDY    51  51 100 S5        29.58R
LAFAYETTE      CLEAR     50  48  93 CALM      29.56R
TERRE HAUTE    PTCLDY    55  49  80 S7        29.58R

$$

INZ030>032-037>040-046>048-054>057-064-065-220200-
CENTRAL INDIANA

CITY           SKY/WX    TMP DP  RH WIND       PRES   REMARKS
COLUMBUS       CLEAR     52  50  93 S6        29.61R
INDIANAPOLIS   MOCLDY    57  50  77 S6        29.59R
-EAGLE CREEK   PTCLDY    56  49  77 S5        29.58R
KOKOMO +       CLEAR     52  50  93 S7        29.59R
MT COMFORT *+  MOCLDY    54  52  94 S5        29.60S
SHELBYVILLE    PTCLDY    56  50  80 S7        29.59S

$$

INZ033-034-041-042-049-050-058-059-220200-
EAST CENTRAL INDIANA

CITY           SKY/WX    TMP DP  RH WIND       PRES   REMARKS
MUNCIE         CLEAR     57  52  83 S6        29.60R

$$

INZ060-061-067>069-081>083-085>088-220200-
SOUTHWEST INDIANA

CITY           SKY/WX    TMP DP  RH WIND       PRES   REMARKS
EVANSVILLE     PTCLDY    58  49  72 CALM      29.60R
HUNTINGBURG *+ CLOUDY    58  51  78 S3        29.61R

$$

INZ062-063-066-070>080-084-089>092-220200-
SOUTH CENTRAL AND SOUTHEAST INDIANA

CITY           SKY/WX    TMP DP  RH WIND       PRES   REMARKS
BLOOMINGTON    PTCLDY    54  48  80 SE3       29.59S
MADISON *+     PTCLDY    54  48  82 SE3       29.64S
SEYMOUR +      PTCLDY    54  50  87 CALM      29.61R

$$




USA.gov is the U.S. government's official web portal to all federal, state and local government web resources and services.